Location: Nians�bougou
(13.2321°N, 4.9818°W)
Time: 10:10:52
(UTC+00:00)

PAYLOAD B - Pass Details

Date: 18 February 2020
Orbit: 848 x 872 km, 99.1° (Epoch: 28 March)

Event Time Altitude Azimuth Distance (km) Brightness Sun altitude
Rises 05:28:06 0° 14° (NNE) 3,430 7.4 -18.5°
Reaches altitude 10° 05:30:29 10° 15° (NNE) 2,489 6.7 -17.9°
Maximum altitude 05:36:01 82° 103° (ESE) 866 4.3 -16.6°
Drops below altitude 10° 05:41:31 10° 190° (S) 2,474 6.6 -15.2°
Sets 05:43:52 0° 191° (SSW) 3,406 7.3 -14.7°
